Time,TemperatureF,DewpointF,PressureIn,WindDirection,WindDirectionDegrees,WindSpeedMPH,WindSpeedGustMPH,Humidity,HourlyPrecipIn,Conditions,Clouds,dailyrainin,SoftwareType,DateUTC
2013-06-15 00:03:00,82.3,44.7,29.88,SSW,203,1.3,1.3,27,0.00,,,0.00,WUHU216HW,2013-06-15 07:03:00,
2013-06-15 00:13:00,81.7,45.2,29.88,SW,225,1.3,1.8,28,0.00,,,0.00,WUHU216HW,2013-06-15 07:13:00,
2013-06-15 00:23:00,81.5,46.1,29.88,South,180,1.8,2.5,29,0.00,,,0.00,WUHU216HW,2013-06-15 07:23:00,
2013-06-15 00:33:00,81.5,45.1,29.88,SSW,203,0.0,3.1,28,0.00,,,0.00,WUHU216HW,2013-06-15 07:33:00,
2013-06-15 00:43:00,81.4,44.9,29.88,South,180,0.7,0.7,28,0.00,,,0.00,WUHU216HW,2013-06-15 07:43:00,
2013-06-15 00:53:00,81.0,45.7,29.88,SSW,203,1.3,2.0,29,0.00,,,0.00,WUHU216HW,2013-06-15 07:53:00,
2013-06-15 01:03:00,80.8,46.6,29.88,SW,225,1.8,1.8,30,0.00,,,0.00,WUHU216HW,2013-06-15 08:03:00,
2013-06-15 01:13:00,80.8,46.6,29.88,SW,225,0.4,2.5,30,0.00,,,0.00,WUHU216HW,2013-06-15 08:13:00,
2013-06-15 01:23:00,80.6,46.4,29.88,SE,135,0.7,1.3,30,0.00,,,0.00,WUHU216HW,2013-06-15 08:23:00,
2013-06-15 01:33:00,80.5,46.3,29.88,WSW,248,1.8,1.8,30,0.00,,,0.00,WUHU216HW,2013-06-15 08:33:00,
2013-06-15 01:43:00,80.1,46.7,29.88,SSW,203,0.7,2.0,31,0.00,,,0.00,WUHU216HW,2013-06-15 08:43:00,
2013-06-15 01:53:00,79.9,47.3,29.88,South,180,0.2,1.8,32,0.00,,,0.00,WUHU216HW,2013-06-15 08:53:00,
2013-06-15 02:03:00,79.7,47.2,29.88,NE,45,1.8,2.5,32,0.00,,,0.00,WUHU216HW,2013-06-15 09:03:00,
2013-06-15 02:14:00,79.6,47.8,29.88,ENE,68,0.9,1.3,33,0.00,,,0.00,WUHU216HW,2013-06-15 09:14:00,
2013-06-15 02:24:00,79.6,47.8,29.88,ESE,113,0.0,2.5,33,0.00,,,0.00,WUHU216HW,2013-06-15 09:24:00,
2013-06-15 02:34:00,79.6,47.8,29.88,SE,135,0.9,2.0,33,0.00,,,0.00,WUHU216HW,2013-06-15 09:34:00,
2013-06-15 02:44:00,79.6,47.8,29.88,ESE,113,0.4,1.6,33,0.00,,,0.00,WUHU216HW,2013-06-15 09:44:00,
2013-06-15 02:54:00,79.4,47.6,29.88,SE,135,1.1,1.1,33,0.00,,,0.00,WUHU216HW,2013-06-15 09:54:00,
2013-06-15 03:04:00,79.4,47.6,29.88,ESE,113,1.8,1.8,33,0.00,,,0.00,WUHU216HW,2013-06-15 10:04:00,
2013-06-15 03:14:00,79.4,47.6,29.89,NNE,23,0.2,1.3,33,0.00,,,0.00,WUHU216HW,2013-06-15 10:14:00,
2013-06-15 03:24:00,79.0,48.1,29.89,NE,45,1.3,1.8,34,0.00,,,0.00,WUHU216HW,2013-06-15 10:24:00,
2013-06-15 03:34:00,79.2,48.2,29.89,ENE,68,1.3,2.2,34,0.00,,,0.00,WUHU216HW,2013-06-15 10:34:00,
2013-06-15 03:44:00,79.4,49.1,29.90,NE,45,0.7,2.0,35,0.00,,,0.00,WUHU216HW,2013-06-15 10:44:00,
2013-06-15 03:54:00,80.1,49.9,29.90,SE,135,2.9,2.9,35,0.00,,,0.00,WUHU216HW,2013-06-15 10:54:00,
2013-06-15 04:04:00,80.8,49.7,29.90,NE,45,4.0,4.0,34,0.00,,,0.00,WUHU216HW,2013-06-15 11:04:00,
2013-06-15 04:14:00,80.8,49.7,29.90,ESE,113,0.2,2.2,34,0.00,,,0.00,WUHU216HW,2013-06-15 11:14:00,
2013-06-15 04:24:00,80.8,50.5,29.90,SE,135,1.3,3.1,35,0.00,,,0.00,WUHU216HW,2013-06-15 11:24:00,
2013-06-15 04:34:00,80.6,49.5,29.91,SE,135,0.4,1.1,34,0.00,,,0.00,WUHU216HW,2013-06-15 11:34:00,
2013-06-15 04:44:00,80.6,50.3,29.91,South,180,1.6,3.1,35,0.00,,,0.00,WUHU216HW,2013-06-15 11:44:00,
2013-06-15 04:54:00,80.5,50.1,29.91,SE,135,0.9,1.8,35,0.00,,,0.00,WUHU216HW,2013-06-15 11:54:00,
2013-06-15 05:04:00,80.1,49.9,29.92,ENE,68,1.1,2.5,35,0.00,,,0.00,WUHU216HW,2013-06-15 12:04:00,
2013-06-15 05:14:00,79.9,49.7,29.92,SE,135,0.7,1.1,35,0.00,,,0.00,WUHU216HW,2013-06-15 12:14:00,
2013-06-15 05:24:00,79.7,50.3,29.92,SE,135,1.1,1.3,36,0.00,,,0.00,WUHU216HW,2013-06-15 12:24:00,
2013-06-15 05:34:00,79.6,50.9,29.93,SE,135,1.1,2.5,37,0.00,,,0.00,WUHU216HW,2013-06-15 12:34:00,
2013-06-15 05:45:00,80.1,51.4,29.93,ENE,68,0.0,2.5,37,0.00,,,0.00,WUHU216HW,2013-06-15 12:45:00,
2013-06-15 05:55:00,80.5,51.7,29.93,SE,135,1.1,1.1,37,0.00,,,0.00,WUHU216HW,2013-06-15 12:55:00,
2013-06-15 06:05:00,81.2,52.3,29.94,ESE,113,1.1,1.8,37,0.00,,,0.00,WUHU216HW,2013-06-15 13:05:00,
2013-06-15 06:15:00,82.8,52.2,29.94,SE,135,1.1,3.1,35,0.00,,,0.00,WUHU216HW,2013-06-15 13:15:00,
2013-06-15 06:25:00,83.5,52.8,29.94,ESE,113,1.1,1.8,35,0.00,,,0.00,WUHU216HW,2013-06-15 13:25:00,
2013-06-15 06:35:00,84.1,52.5,29.95,SE,135,1.6,1.6,34,0.00,,,0.00,WUHU216HW,2013-06-15 13:35:00,
2013-06-15 06:45:00,85.0,53.3,29.95,SSE,158,3.4,3.4,34,0.00,,,0.00,WUHU216HW,2013-06-15 13:45:00,
2013-06-15 06:55:00,85.5,53.0,29.95,ESE,113,0.4,4.3,33,0.00,,,0.00,WUHU216HW,2013-06-15 13:55:00,
2013-06-15 07:05:00,86.2,53.6,29.95,SE,135,0.4,1.6,33,0.00,,,0.00,WUHU216HW,2013-06-15 14:05:00,
2013-06-15 07:15:00,86.9,53.5,29.95,West,270,1.3,2.0,32,0.00,,,0.00,WUHU216HW,2013-06-15 14:15:00,
2013-06-15 07:25:00,87.5,53.9,29.96,WSW,248,0.4,1.1,32,0.00,,,0.00,WUHU216HW,2013-06-15 14:25:00,
2013-06-15 07:35:00,88.2,54.6,29.96,WSW,248,0.9,1.8,32,0.00,,,0.00,WUHU216HW,2013-06-15 14:35:00,
2013-06-15 07:45:00,88.7,55.0,29.96,West,270,0.9,0.9,32,0.00,,,0.00,WUHU216HW,2013-06-15 14:45:00,
2013-06-15 07:55:00,88.9,55.2,29.96,NNW,338,0.4,3.1,32,0.00,,,0.00,WUHU216HW,2013-06-15 14:55:00,
2013-06-15 08:05:00,89.3,55.4,29.96,North,0,1.3,2.7,32,0.00,,,0.00,WUHU216HW,2013-06-15 15:05:00,
2013-06-15 08:15:00,89.6,54.2,29.96,SSE,158,0.9,1.8,30,0.00,,,0.00,WUHU216HW,2013-06-15 15:15:00,
2013-06-15 08:25:00,90.2,55.4,29.96,North,0,2.5,4.7,31,0.00,,,0.00,WUHU216HW,2013-06-15 15:25:00,
2013-06-15 08:36:00,90.7,56.0,29.96,NNW,338,0.7,3.6,31,0.00,,,0.00,WUHU216HW,2013-06-15 15:36:00,
2013-06-15 08:46:00,91.3,55.6,29.96,West,270,0.7,2.5,30,0.00,,,0.00,WUHU216HW,2013-06-15 15:46:00,
2013-06-15 08:56:00,91.8,56.1,29.96,WSW,248,2.5,5.4,30,0.00,,,0.00,WUHU216HW,2013-06-15 15:56:00,
2013-06-15 09:06:00,92.7,56.8,29.96,NNW,338,2.5,2.5,30,0.00,,,0.00,WUHU216HW,2013-06-15 16:06:00,
2013-06-15 09:16:00,93.4,56.4,29.96,West,270,1.1,5.6,29,0.00,,,0.00,WUHU216HW,2013-06-15 16:16:00,
2013-06-15 09:26:00,94.0,56.8,29.96,NNE,23,2.0,4.0,29,0.00,,,0.00,WUHU216HW,2013-06-15 16:26:00,
2013-06-15 09:36:00,93.6,55.4,29.95,North,0,2.5,2.5,28,0.00,,,0.00,WUHU216HW,2013-06-15 16:36:00,
2013-06-15 09:46:00,93.8,56.6,29.95,WNW,293,1.3,4.0,29,0.00,,,0.00,WUHU216HW,2013-06-15 16:46:00,
2013-06-15 09:56:00,95.0,55.5,29.95,NNW,338,1.3,3.8,27,0.00,,,0.00,WUHU216HW,2013-06-15 16:56:00,
2013-06-15 10:06:00,95.6,54.8,29.95,NNW,338,2.5,4.7,26,0.00,,,0.00,WUHU216HW,2013-06-15 17:06:00,
2013-06-15 10:16:00,95.9,55.2,29.95,WSW,248,1.1,4.5,26,0.00,,,0.00,WUHU216HW,2013-06-15 17:16:00,
2013-06-15 10:26:00,96.8,55.9,29.95,SSW,203,1.8,3.1,26,0.00,,,0.00,WUHU216HW,2013-06-15 17:26:00,
2013-06-15 10:36:00,97.9,55.7,29.95,NNE,23,4.0,4.9,25,0.00,,,0.00,WUHU216HW,2013-06-15 17:36:00,
2013-06-15 10:46:00,98.1,54.8,29.95,West,270,4.0,5.4,24,0.00,,,0.00,WUHU216HW,2013-06-15 17:46:00,
2013-06-15 10:56:00,99.2,55.7,29.95,West,270,4.9,5.4,24,0.00,,,0.00,WUHU216HW,2013-06-15 17:56:00,
2013-06-15 11:06:00,99.7,55.0,29.95,NNW,338,1.8,4.0,23,0.00,,,0.00,WUHU216HW,2013-06-15 18:06:00,
2013-06-15 11:16:00,99.7,55.0,29.94,North,0,5.8,5.8,23,0.00,,,0.00,WUHU216HW,2013-06-15 18:16:00,
2013-06-15 11:26:00,100.4,55.6,29.94,NW,315,6.3,6.3,23,0.00,,,0.00,WUHU216HW,2013-06-15 18:26:00,
2013-06-15 11:36:00,101.2,55.1,29.94,WNW,293,4.9,5.4,22,0.00,,,0.00,WUHU216HW,2013-06-15 18:36:00,
2013-06-15 11:47:00,101.7,55.4,29.93,NW,315,1.3,6.0,22,0.00,,,0.00,WUHU216HW,2013-06-15 18:47:00,
2013-06-15 11:57:00,101.5,55.4,29.93,WSW,248,3.1,7.6,22,0.00,,,0.00,WUHU216HW,2013-06-15 18:57:00,
2013-06-15 12:07:00,102.2,55.9,29.92,WSW,248,3.8,4.5,22,0.00,,,0.00,WUHU216HW,2013-06-15 19:07:00,
2013-06-15 12:17:00,103.7,54.8,29.92,West,270,1.8,8.7,20,0.00,,,0.00,WUHU216HW,2013-06-15 19:17:00,
2013-06-15 12:27:00,103.5,54.6,29.91,WSW,248,0.7,3.8,20,0.00,,,0.00,WUHU216HW,2013-06-15 19:27:00,
2013-06-15 12:37:00,103.7,54.8,29.91,North,0,1.3,4.5,20,0.00,,,0.00,WUHU216HW,2013-06-15 19:37:00,
2013-06-15 12:47:00,103.5,54.6,29.90,ENE,68,4.7,6.0,20,0.00,,,0.00,WUHU216HW,2013-06-15 19:47:00,
2013-06-15 12:57:00,102.6,56.2,29.90,NE,45,5.8,6.3,22,0.00,,,0.00,WUHU216HW,2013-06-15 19:57:00,
2013-06-15 13:07:00,101.5,55.4,29.90,NNE,23,6.5,6.5,22,0.00,,,0.00,WUHU216HW,2013-06-15 20:07:00,
2013-06-15 13:17:00,99.5,66.9,29.92,WNW,293,3.4,6.5,35,0.05,,,0.04,WUHU216HW,2013-06-15 20:17:00,
2013-06-15 13:27:00,94.1,66.2,29.92,SE,135,4.7,4.7,40,0.14,,,0.14,WUHU216HW,2013-06-15 20:27:00,
2013-06-15 13:37:00,90.4,63.4,29.92,SE,135,5.1,13.9,41,0.14,,,0.14,WUHU216HW,2013-06-15 20:37:00,
2013-06-15 13:47:00,88.9,64.1,29.90,SSE,158,4.7,6.7,44,0.14,,,0.14,WUHU216HW,2013-06-15 20:47:00,
2013-06-15 13:57:00,89.1,64.3,29.90,South,180,4.7,7.2,44,0.14,,,0.14,WUHU216HW,2013-06-15 20:57:00,
2013-06-15 14:07:00,87.7,65.5,29.89,South,180,4.0,10.3,48,0.15,,,0.14,WUHU216HW,2013-06-15 21:07:00,
2013-06-15 14:17:00,85.9,66.3,29.90,South,180,2.7,6.9,52,0.11,,,0.18,WUHU216HW,2013-06-15 21:17:00,
2013-06-15 14:27:00,84.6,66.7,29.93,West,270,3.8,5.6,55,0.14,,,0.27,WUHU216HW,2013-06-15 21:27:00,
2013-06-15 14:37:00,82.4,66.1,29.88,SE,135,4.7,7.2,58,0.20,,,0.34,WUHU216HW,2013-06-15 21:37:00,
2013-06-15 14:47:00,84.6,65.1,29.87,ESE,113,0.7,4.7,52,0.20,,,0.34,WUHU216HW,2013-06-15 21:47:00,
2013-06-15 14:57:00,87.7,67.9,29.88,SE,135,9.6,9.6,52,0.20,,,0.34,WUHU216HW,2013-06-15 21:57:00,
2013-06-15 15:07:00,86.8,66.0,29.87,ESE,113,2.9,8.7,50,0.19,,,0.34,WUHU216HW,2013-06-15 22:07:00,
2013-06-15 15:17:00,88.2,64.1,29.87,SSE,158,5.1,5.1,45,0.13,,,0.34,WUHU216HW,2013-06-15 22:17:00,
2013-06-15 15:28:00,90.2,65.2,29.87,SW,225,3.8,5.1,44,0.05,,,0.34,WUHU216HW,2013-06-15 22:28:00,
2013-06-15 15:38:00,91.4,65.0,29.86,SE,135,4.0,5.1,42,0.00,,,0.34,WUHU216HW,2013-06-15 22:38:00,
2013-06-15 15:48:00,92.5,63.1,29.86,SSW,203,4.3,6.5,38,0.00,,,0.34,WUHU216HW,2013-06-15 22:48:00,
2013-06-15 15:58:00,93.6,62.5,29.86,SSE,158,3.4,5.8,36,0.00,,,0.34,WUHU216HW,2013-06-15 22:58:00,
2013-06-15 16:08:00,94.7,61.7,29.85,SSE,158,1.1,4.5,34,0.00,,,0.34,WUHU216HW,2013-06-15 23:08:00,
2013-06-15 16:18:00,95.4,62.4,29.85,SSW,203,3.6,4.7,34,0.00,,,0.34,WUHU216HW,2013-06-15 23:18:00,
2013-06-15 16:28:00,96.3,61.5,29.85,South,180,2.5,3.6,32,0.00,,,0.34,WUHU216HW,2013-06-15 23:28:00,
2013-06-15 16:38:00,96.8,61.9,29.85,SW,225,3.6,3.8,32,0.00,,,0.34,WUHU216HW,2013-06-15 23:38:00,
2013-06-15 16:48:00,97.6,61.7,29.85,SSW,203,2.5,3.6,31,0.00,,,0.34,WUHU216HW,2013-06-15 23:48:00,
2013-06-15 16:58:00,97.9,61.3,29.84,South,180,4.5,4.5,30,0.00,,,0.34,WUHU216HW,2013-06-15 23:58:00,
2013-06-15 17:08:00,97.7,61.1,29.84,SW,225,0.4,3.1,30,0.00,,,0.34,WUHU216HW,2013-06-16 00:08:00,
2013-06-15 17:18:00,97.6,59.9,29.84,SSW,203,0.9,1.8,29,0.00,,,0.34,WUHU216HW,2013-06-16 00:18:00,
2013-06-15 17:28:00,97.4,59.7,29.84,WSW,248,0.9,1.8,29,0.00,,,0.34,WUHU216HW,2013-06-16 00:28:00,
2013-06-15 17:38:00,97.0,60.5,29.84,SSW,203,0.7,1.8,30,0.00,,,0.34,WUHU216HW,2013-06-16 00:38:00,
2013-06-15 17:48:00,96.7,61.8,29.84,SSW,203,1.6,2.5,32,0.01,,,0.35,WUHU216HW,2013-06-16 00:48:00,
2013-06-15 17:58:00,95.9,62.0,29.85,West,270,1.8,1.8,33,0.01,,,0.35,WUHU216HW,2013-06-16 00:58:00,
2013-06-15 18:08:00,94.3,59.9,29.85,SSW,203,3.6,7.6,32,0.01,,,0.35,WUHU216HW,2013-06-16 01:08:00,
2013-06-15 18:18:00,93.4,59.1,29.85,South,180,3.4,5.6,32,0.01,,,0.35,WUHU216HW,2013-06-16 01:18:00,
2013-06-15 18:28:00,93.1,58.7,29.86,South,180,1.3,4.0,32,0.01,,,0.35,WUHU216HW,2013-06-16 01:28:00,
2013-06-15 18:39:00,92.5,58.2,29.86,SSW,203,1.1,4.0,32,0.01,,,0.35,WUHU216HW,2013-06-16 01:39:00,
2013-06-15 18:49:00,92.5,59.0,29.86,SSE,158,1.8,1.8,33,0.00,,,0.35,WUHU216HW,2013-06-16 01:49:00,
2013-06-15 18:59:00,92.2,59.6,29.86,SE,135,0.0,0.4,34,0.00,,,0.35,WUHU216HW,2013-06-16 01:59:00,
2013-06-15 19:09:00,91.8,59.3,29.87,West,270,0.4,1.3,34,0.00,,,0.35,WUHU216HW,2013-06-16 02:09:00,
2013-06-15 19:19:00,91.3,58.8,29.87,SSE,158,2.2,2.2,34,0.00,,,0.35,WUHU216HW,2013-06-16 02:19:00,
2013-06-15 19:29:00,91.1,57.1,29.87,ESE,113,0.9,4.9,32,0.00,,,0.35,WUHU216HW,2013-06-16 02:29:00,
2013-06-15 19:39:00,90.5,57.3,29.88,ESE,113,0.7,1.1,33,0.00,,,0.35,WUHU216HW,2013-06-16 02:39:00,
2013-06-15 19:49:00,89.6,57.3,29.88,SSW,203,1.6,2.5,34,0.00,,,0.35,WUHU216HW,2013-06-16 02:49:00,
2013-06-15 19:59:00,88.9,58.3,29.88,SE,135,0.0,1.6,36,0.00,,,0.35,WUHU216HW,2013-06-16 02:59:00,
2013-06-15 20:09:00,88.2,59.3,29.89,SSW,203,2.5,2.9,38,0.00,,,0.35,WUHU216HW,2013-06-16 03:09:00,
2013-06-15 20:19:00,87.5,59.5,29.89,SSW,203,1.3,3.6,39,0.00,,,0.35,WUHU216HW,2013-06-16 03:19:00,
2013-06-15 20:29:00,86.8,58.1,29.90,SSE,158,0.4,1.3,38,0.00,,,0.35,WUHU216HW,2013-06-16 03:29:00,
2013-06-15 20:39:00,86.0,58.2,29.90,South,180,0.7,2.5,39,0.00,,,0.35,WUHU216HW,2013-06-16 03:39:00,
2013-06-15 20:49:00,85.7,58.7,29.90,South,180,1.8,3.6,40,0.00,,,0.35,WUHU216HW,2013-06-16 03:49:00,
2013-06-15 20:59:00,85.0,58.7,29.91,SE,135,1.1,1.8,41,0.00,,,0.35,WUHU216HW,2013-06-16 03:59:00,
2013-06-15 21:09:00,84.2,58.1,29.91,SE,135,0.9,3.4,41,0.00,,,0.35,WUHU216HW,2013-06-16 04:09:00,
2013-06-15 21:19:00,83.9,57.7,29.92,SSW,203,1.1,1.8,41,0.00,,,0.35,WUHU216HW,2013-06-16 04:19:00,
2013-06-15 21:29:00,83.5,59.2,29.92,ESE,113,0.4,1.8,44,0.00,,,0.35,WUHU216HW,2013-06-16 04:29:00,
2013-06-15 21:39:00,83.0,60.0,29.93,WSW,248,0.0,1.1,46,0.00,,,0.35,WUHU216HW,2013-06-16 04:39:00,
2013-06-15 21:49:00,82.3,60.0,29.93,South,180,0.0,1.8,47,0.00,,,0.35,WUHU216HW,2013-06-16 04:49:00,
2013-06-15 21:59:00,81.7,59.4,29.93,South,180,1.1,1.1,47,0.00,,,0.35,WUHU216HW,2013-06-16 04:59:00,
2013-06-15 22:09:00,81.4,60.3,29.93,SSE,158,0.4,1.1,49,0.00,,,0.35,WUHU216HW,2013-06-16 05:09:00,
2013-06-15 22:20:00,81.0,59.4,29.93,SSW,203,1.1,1.6,48,0.00,,,0.35,WUHU216HW,2013-06-16 05:20:00,
2013-06-15 22:30:00,80.6,59.7,29.94,SE,135,1.1,1.1,49,0.00,,,0.35,WUHU216HW,2013-06-16 05:30:00,
2013-06-15 22:40:00,80.5,59.0,29.94,SE,135,0.0,1.3,48,0.00,,,0.35,WUHU216HW,2013-06-16 05:40:00,
2013-06-15 22:50:00,80.1,59.9,29.94,NNE,23,0.7,1.1,50,0.00,,,0.35,WUHU216HW,2013-06-16 05:50:00,
2013-06-15 23:00:00,79.6,59.3,29.94,North,0,1.3,1.8,50,0.00,,,0.35,WUHU216HW,2013-06-16 06:00:00,
2013-06-15 23:10:00,79.4,59.7,29.94,NNE,23,1.1,2.0,51,0.00,,,0.35,WUHU216HW,2013-06-16 06:10:00,
2013-06-15 23:20:00,79.2,60.0,29.94,North,0,1.1,2.5,52,0.00,,,0.35,WUHU216HW,2013-06-16 06:20:00,
2013-06-15 23:30:00,78.8,60.8,29.94,ENE,68,0.0,0.7,54,0.00,,,0.35,WUHU216HW,2013-06-16 06:30:00,
2013-06-15 23:40:00,78.5,60.9,29.94,SE,135,0.0,1.6,55,0.00,,,0.35,WUHU216HW,2013-06-16 06:40:00,
2013-06-15 23:50:00,78.3,60.8,29.95,ENE,68,0.0,1.6,55,0.00,,,0.35,WUHU216HW,2013-06-16 06:50:00,